Regional Weather Roundup
Issued by NWS Goodland, KS

Home | Current Version | Previous Version | Text Only | Print | Product List | Glossary Off
Versions: 1 2 3 4 5 6 7 8 9 10 11 12 13 14 15 16 17 18 19 20 21 22 23 24 25 26 27 28 29 30 31 32 33 34 35 36 37 38 39 40 41 42 43 44 45 46 47 48 49 50

000
ASUS43 KGLD 011759
RWRGLD

GOODLAND FORECAST AREA HOURLY WEATHER ROUNDUP
NATIONAL WEATHER SERVICE GOODLAND KS
1200 PM MDT SUN MAY 01 2016

...OFFICIAL OBSERVATIONS...

CITY           SKY/WX    TMP DP  RH WIND       PRES   REMARKS
GOODLAND KS    PTSUNNY   46  35  65 N24G30    30.22F
HILL CITY KS   CLOUDY    49  39  68 N20G29    30.21R
IMPERIAL NEB   CLOUDY    49  32  52 N29G35    30.27F
MCCOOK NEB     CLOUDY    48  38  68 N16       30.22F
AKRON CO       PTSUNNY   37  31  78 N16       30.29F
BURLINGTON CO  CLOUDY    46  33  60 N28G36    30.23F
LIMON CO       CLOUDY    34  31  88 N17       30.29F
$$

...UNOFFICIAL OBSERVATIONS...

CITY           SKY/WX    TMP DP  RH WIND       PRES   REMARKS
COLBY KS       CLOUDY    45  41  87 N21G26    30.22F
LENORA KS        N/A     45  32  60 MISG        N/A
NORTON KS      CLOUDY    45  37  76 N15       30.20R
SHARON SPRINGS   N/A     43  37  80 N18G28      N/A
KIT CARSON CO    N/A     42  35  77 MISG        N/A
YUMA CO          N/A     40  35  84 N9G20       N/A
$$




USA.gov is the U.S. government's official web portal to all federal, state and local government web resources and services.